K9APR Weather Reports


Display with metric or nautical units.
time (UTC)temp
F
wind
direction
speed
MPH
gust
MPH
rain 1hr
in
rain 24hr
in
rain mn
in
humidity
%
barometer
mb
20260506174723 54 322 1.0 3.0 0.00 1.38 0.29 63 1014.3
20260506173822 54 304 1.0 1.0 0.00 1.38 0.29 64 1014.6
20260506173015 54 306 1.0 1.0 0.00 1.38 0.29 65 1014.7
20260506172922 54 306 1.0 1.0 0.00 1.38 0.29 65 1014.7
20260506172023 54 304 2.0 3.0 0.00 1.38 0.29 61 1014.8
20260506171123 54 317 1.0 1.0 0.00 1.38 0.29 62 1014.8
20260506170222 54 304 3.0 3.0 0.00 1.38 0.29 62 1014.7
20260506165322 54 299 1.0 5.0 0.00 1.38 0.29 64 1014.4
20260506164423 55 291 2.0 3.0 0.00 1.38 0.29 62 1014.3
20260506163522 54 312 2.0 3.0 0.00 1.38 0.29 66 1014.4
20260506162621 54 298 1.0 5.0 0.00 1.38 0.29 63 1014.5
20260506161723 53 305 1.0 1.0 0.00 1.38 0.29 63 1014.5
20260506160856 54 304 2.0 3.0 0.00 1.38 0.29 63 1014.4
20260506160823 54 304 2.0 3.0 0.00 1.38 0.29 63 1014.4
20260506155922 54 299 1.0 2.0 0.00 1.38 0.29 66 1014.5
20260506155022 54 310 2.0 2.0 0.00 1.38 0.29 66 1014.4
20260506154121 54 310 2.0 3.0 0.00 1.38 0.29 63 1014.6
20260506153223 54 302 2.0 3.0 0.00 1.38 0.29 64 1014.1
20260506152322 54 286 2.0 3.0 0.00 1.38 0.29 65 1014.3
20260506151422 53 300 5.0 6.0 0.00 1.38 0.29 65 1014.0
20260506150523 52 307 1.0 3.0 0.00 1.38 0.29 65 1014.1
20260506145621 52 303 5.0 6.0 0.00 1.38 0.29 69 1014.0
20260506144721 51 293 6.0 8.0 0.00 1.38 0.29 68 1013.9
20260506143821 51 315 2.0 3.0 0.00 1.38 0.29 69 1013.6
20260506142922 50 323 1.0 2.0 0.00 1.38 0.29 71 1013.5
20260506142023 50 304 2.0 6.0 0.00 1.38 0.29 72 1013.5
20260506141122 49 309 1.0 3.0 0.00 1.38 0.29 74 1013.3
20260506135321 48 306 2.0 5.0 0.00 1.38 0.29 77 1013.6
20260506134423 48 297 5.0 5.0 0.00 1.38 0.29 79 1013.6
20260506133521 47 305 1.0 3.0 0.00 1.38 0.29 81 1013.4
20260506132622 47 297 2.0 3.0 0.00 1.38 0.29 82 1013.4
20260506131723 46 304 0.0 2.0 0.00 1.38 0.29 86 1013.4
20260506130821 45 290 3.0 5.0 0.00 1.38 0.29 86 1013.5
20260506125921 45 312 0.0 1.0 0.00 1.38 0.29 89 1013.2
20260506125023 44 301 1.0 2.0 0.00 1.38 0.29 90 1013.1
20260506124122 44 299 1.0 2.0 0.00 1.38 0.29 91 1013.0
20260506123225 44 294 0.0 1.0 0.00 1.38 0.29 91 1012.9
20260506122322 43 293 2.0 2.0 0.00 1.38 0.29 92 1012.7
20260506121422 43 305 2.0 2.0 0.00 1.38 0.29 92 1012.8
20260506120521 43 296 0.0 1.0 0.00 1.38 0.29 93 1012.5
20260506115622 43 296 0.0 0.0 0.00 1.38 0.29 93 1012.2
20260506114730 43 300 0.0 1.0 0.00 1.38 0.29 93 1011.9
20260506113821 43 300 0.0 0.0 0.00 1.38 0.29 93 1011.6
20260506112922 42 289 0.0 1.0 0.00 1.38 0.29 93 1011.6
20260506112024 42 289 0.0 0.0 0.00 1.38 0.29 93 1011.3
20260506111121 42 289 0.0 0.0 0.00 1.38 0.29 93 1011.1
20260506110222 42 289 0.0 0.0 0.00 1.38 0.29 93 1010.9
20260506105322 42 289 0.0 0.0 0.00 1.38 0.29 93 1010.7
20260506104422 42 289 0.0 0.0 0.00 1.38 0.29 93 1010.8
20260506103522 42 289 0.0 0.0 0.00 1.38 0.29 93 1011.1
20260506102622 42 289 0.0 0.0 0.00 1.38 0.29 93 1010.8
20260506101723 42 289 0.0 0.0 0.00 1.38 0.29 92 1010.5
20260506100821 42 289 0.0 0.0 0.00 1.38 0.29 92 1010.4
20260506095922 42 289 0.0 0.0 0.00 1.39 0.29 92 1010.1
20260506095023 42 289 0.0 0.0 0.00 1.39 0.29 92 1010.2
20260506094122 42 289 0.0 0.0 0.00 1.39 0.29 92 1010.0
20260506093223 42 289 0.0 0.0 0.00 1.39 0.29 92 1010.0
20260506092321 42 289 0.0 0.0 0.00 1.39 0.29 93 1010.1
20260506091422 42 289 0.0 0.0 0.00 1.39 0.29 93 1010.2
20260506090522 41 285 0.0 1.0 0.00 1.40 0.29 92 1010.3
20260506085623 42 242 0.0 0.0 0.01 1.40 0.29 92 1009.8
20260506084723 42 242 0.0 0.0 0.01 1.41 0.29 92 1009.7
20260506083822 42 241 0.0 0.0 0.01 1.43 0.29 92 1009.3
20260506082921 42 241 0.0 0.0 0.02 1.48 0.29 92 1009.8
20260506082022 41 241 0.0 0.0 0.02 1.52 0.29 92 1009.8
20260506081122 41 242 0.0 1.0 0.03 1.55 0.29 92 1009.3
20260506080221 41 249 0.0 1.0 0.03 1.59 0.29 92 1008.9
20260506073522 42 257 0.0 0.0 0.02 1.66 0.28 92 1009.9
20260506072622 42 256 0.0 1.0 0.01 1.68 0.27 92 1009.9
20260506071723 42 207 0.0 1.0 0.01 1.70 0.27 92 1009.6
20260506070835 43 306 0.0 0.0 0.01 1.71 0.26 92 1009.6
20260506062322 43 204 0.0 0.0 0.07 1.76 0.26 92 1009.5
20260506061421 43 286 0.0 1.0 0.08 1.76 0.26 92 1009.7
20260506060521 43 248 0.0 1.0 0.08 1.75 0.25 92 1009.7
20260506051122 45 339 0.0 1.0 0.14 1.68 0.18 92 1008.6
20260506050221 45 241 0.0 2.0 0.17 1.67 0.17 92 1008.5
20260506044422 45 286 1.0 3.0 0.00 1.64 0.14 92 1008.8
20260506043522 45 317 1.0 3.0 0.00 1.61 0.11 92 1009.7
20260506042621 46 305 0.0 0.0 0.00 1.58 0.08 92 1009.4
20260506041722 45 307 0.0 0.0 0.00 1.56 0.06 92 1009.2
20260506040822 45 310 0.0 1.0 0.00 1.53 0.03 92 1009.1
20260506035922 46 304 1.0 2.0 0.00 1.50 0.00 92 1008.9
20260506034122 46 97 2.0 3.0 0.21 1.50 1.50 92 1008.0
20260506033222 46 132 1.0 2.0 0.21 1.49 1.49 92 1008.3
20260506032321 46 144 1.0 2.0 0.17 1.45 1.45 92 1008.8
20260506031422 46 304 1.0 1.0 0.11 1.39 1.39 92 1009.2
20260506030521 47 290 1.0 2.0 0.04 1.31 1.31 92 1009.2
20260506025621 47 260 1.0 6.0 0.02 1.29 1.29 92 1008.3
20260506024723 47 241 0.0 1.0 0.03 1.29 1.29 92 1008.2
20260506023821 47 120 1.0 3.0 0.03 1.28 1.28 92 1008.1
20260506022924 47 278 1.0 1.0 0.04 1.28 1.28 92 1008.2
20260506022023 47 163 0.0 1.0 0.07 1.28 1.28 92 1008.4
20260506021122 47 269 1.0 2.0 0.09 1.28 1.28 92 1008.5
20260506020221 47 146 1.0 2.0 0.10 1.27 1.27 92 1008.7
20260506015322 47 240 0.0 1.0 0.09 1.26 1.26 92 1008.8
20260506014421 47 105 0.0 1.0 0.11 1.26 1.26 92 1008.8
20260506013522 47 146 0.0 2.0 0.13 1.25 1.25 92 1008.5
20260506012621 48 290 0.0 1.0 0.14 1.23 1.23 92 1008.8
20260506011721 47 253 0.0 0.0 0.14 1.20 1.20 92 1008.5
20260506010821 48 234 0.0 2.0 0.18 1.18 1.18 92 1008.4
20260506005921 47 178 0.0 1.0 0.21 1.17 1.17 92 1008.1
20260506005022 48 231 0.0 0.0 0.25 1.17 1.17 91 1008.0
20260506004125 48 130 0.0 1.0 0.26 1.14 1.14 91 1008.3
20260506003221 48 311 0.0 1.0 0.27 1.12 1.12 91 1008.6
20260506002322 48 299 1.0 1.0 0.26 1.09 1.09 91 1008.6
20260506001422 49 317 1.0 2.0 0.23 1.04 1.04 91 1008.4
20260506000522 49 306 0.0 2.0 0.21 0.99 0.99 91 1008.4
20260505233822 49 312 1.0 3.0 0.15 0.88 0.88 91 1007.7
20260505232921 49 304 1.0 3.0 0.13 0.84 0.84 91 1007.8
20260505230223 51 307 2.0 3.0 0.15 0.78 0.78 90 1007.4
20260505225322 51 310 2.0 3.0 0.15 0.77 0.77 90 1007.4
20260505224422 52 313 2.0 5.0 0.13 0.74 0.74 89 1007.6
20260505222621 58 306 7.0 9.0 0.09 0.69 0.69 88 1007.3
20260505220821 58 188 0.0 3.0 0.05 0.65 0.65 90 1007.2
20260505215921 58 230 0.0 2.0 0.03 0.63 0.63 90 1007.2
20260505214123 58 172 2.0 3.0 0.01 0.61 0.61 90 1007.0
20260505213223 58 211 1.0 3.0 0.00 0.60 0.60 90 1007.1
20260505212322 58 203 2.0 5.0 0.00 0.60 0.60 90 1007.1
20260505211423 58 174 2.0 6.0 0.00 0.60 0.60 90 1007.1
20260505205623 58 204 3.0 3.0 0.01 0.60 0.60 89 1007.1
20260505204722 58 198 5.0 5.0 0.03 0.60 0.60 89 1007.2
20260505204506 58 157 3.0 3.0 0.05 0.60 0.60 89 1007.1
20260505203825 58 157 3.0 3.0 0.05 0.60 0.60 89 1007.1
20260505202921 58 152 3.0 6.0 0.06 0.60 0.60 89 1007.1
20260505202022 58 185 2.0 3.0 0.07 0.60 0.60 89 1007.2
20260505201121 58 163 3.0 6.0 0.08 0.60 0.60 89 1007.3
20260505200223 59 123 5.0 7.0 0.11 0.60 0.60 89 1007.3
20260505195322 59 135 3.0 7.0 0.11 0.58 0.58 88 1007.5
20260505194423 59 183 5.0 7.0 0.11 0.56 0.56 88 1007.6
20260505193521 59 165 2.0 3.0 0.11 0.54 0.54 88 1007.7
20260505192622 59 188 3.0 3.0 0.12 0.54 0.54 88 1007.8
20260505190853 59 210 5.0 8.0 0.09 0.51 0.51 86 1008.0
20260505190821 59 210 5.0 8.0 0.09 0.51 0.51 86 1008.0
20260505185921 60 237 3.0 5.0 0.06 0.48 0.48 86 1008.0
20260505185021 60 198 5.0 6.0 0.06 0.47 0.47 84 1008.0
20260505182320 61 210 2.0 3.0 0.01 0.42 0.42 83 1007.9
20260505181421 61 237 1.0 5.0 0.01 0.42 0.42 83 1008.0
20260505180521 61 257 2.0 3.0 0.01 0.42 0.42 82 1007.9
20260505175622 62 246 2.0 3.0 0.01 0.42 0.42 80 1007.9